[[{"header":{"parameterUnit":"m.s-1","parameterCategory":1,"la1":30.2991,"la2":30.254,"lo1":-89.0895,"lo2":-89.0444,"dy":0.0017,"dx":0.0017,"nx":28,"ny":28,"refTime":"2024-08-08T09:00:00:Z","depth":0,"parameterNumber":2,"parameterNumberName":"U-component_of_WINDS"},"data":[0,0,0,0,0,0,0,0,0,0,0,0,0,0,0,0,0,0,0,0,0,0,0,0,0,0,0,0,0,0,0,0,0,0,0,0,0,0,0,0,0,0,0,0,0,0,0,0,0,0,0,0,0,0,0,0,0,0,5.9393,5.9395,0,5.9579,5.9581,5.9583,5.9646,5.9646,5.9645,5.9644,5.9831,5.9837,5.9842,0,0,0,0,0,0,0,0,0,0,0,0,0,5.9092,5.9097,5.9393,5.9396,5.9398,5.9579,5.9581,5.9584,5.9646,5.9645,5.9645,5.9644,5.9829,5.9836,5.9843,0,0,0,0,0,0,0,0,0,0,0,0,0,5.9245,5.9099,5.9393,5.9451,5.9458,5.9578,5.9581,5.9585,5.9647,5.9645,5.9644,5.9643,5.9827,5.9836,5.9844,5.9919,0,0,5.987,5.9874,0,0,0,0,0,0,0,0,5.9236,5.9256,5.944,5.9447,5.9455,5.9588,5.9544,5.9697,5.9647,5.9575,5.9644,5.9643,5.9751,5.9766,5.9803,5.9928,5.9936,5.9871,5.9876,5.988,5.9882,0,0,0,0,0,0,0,5.9225,5.9248,5.9467,5.9443,5.9452,5.9468,5.9488,5.9573,5.9667,5.9581,5.9586,5.9607,5.9755,5.9795,5.9808,5.9938,5.987,5.9878,5.9883,5.9887,6.0137,6.0138,0,0,0,0,0,0,5.9205,5.9239,5.9461,5.9472,5.9341,5.9474,5.9497,5.9547,5.9666,5.9683,5.9608,5.961,5.9781,5.9798,5.9815,5.9912,5.9879,5.9887,5.9892,6.0135,6.0137,6.0139,0,0,0,0,0,0,5.9199,5.9225,5.9453,5.9357,5.9388,5.948,5.9536,5.9551,5.9591,5.9687,5.9704,5.9631,5.9781,5.9803,5.9893,5.9919,5.9891,5.9899,6.0133,6.0136,6.0138,6.0105,0,0,0,0,0,0,5.919,5.9222,5.9251,5.9357,5.9392,5.9529,5.9538,5.9555,5.9606,5.9609,5.9713,5.9729,5.9781,5.988,5.9902,5.993,5.9906,6.0131,6.0134,6.0137,6.0104,6.0106,6.0107,0,0,0,0,0,5.9179,5.9233,5.9252,5.9278,5.9431,5.953,5.955,5.961,5.9607,5.9638,5.97,5.9726,5.9913,5.9889,5.9914,5.9945,6.013,6.0134,6.0137,6.0103,6.0105,6.0107,0,0,0,0,0,0,5.9125,5.9248,5.927,5.9361,5.9435,5.954,5.958,5.961,5.9685,5.9685,5.9756,5.9778,5.9864,5.9914,5.9885,6.0025,6.0023,6.0032,5.9989,5.9992,5.9993,5.9979,5.9913,0,0,0,0,0,5.9124,5.9195,5.9298,5.9368,5.9404,5.9486,5.9531,5.9571,5.965,5.9681,5.975,5.9825,5.9901,5.995,6.0025,6.0113,6.0136,6.0147,6.0148,6.0149,6.0155,6.0207,6.0212,6.015,6.015,6.015,0,0,5.9122,5.9198,5.9238,5.936,5.9421,5.9493,5.9511,5.9586,5.964,5.9692,5.9782,5.9836,5.9925,6.0014,6.0057,6.0059,6.0178,6.0153,6.0153,6.0159,6.0211,6.0217,6.0222,6.0152,6.0152,6.0151,0,0,5.9155,5.922,5.9286,5.9348,5.9443,5.9498,5.9513,5.9616,5.9654,5.9746,5.9788,5.9853,5.9982,6.0044,6.0092,6.0153,6.018,6.0176,6.0183,6.0232,6.0237,6.0242,6.0264,6.0271,6.0182,6.0182,6.0182,0,5.914,5.925,5.9316,5.9389,5.9442,5.9495,5.9563,5.962,5.9734,5.9769,5.9769,5.9935,5.9998,6.0104,6.0119,6.0156,6.0177,6.0163,6.0232,6.0237,6.0242,6.0264,6.0272,6.018,6.0181,6.0181,6.0181,0,5.9228,5.9304,5.9346,5.9456,5.9514,5.9583,5.966,5.971,5.9747,5.9801,5.9895,5.9974,6.0067,6.0095,6.013,6.0207,6.0205,6.0218,6.0217,6.0246,6.0268,6.0276,6.0179,6.0179,6.0179,6.018,0,0,5.9228,5.9377,5.9391,5.9443,5.9553,5.9613,5.9686,5.9779,5.9821,5.9899,5.9962,6.0072,6.0085,6.014,6.0183,6.0227,6.0271,6.0235,6.0238,6.0239,6.0361,6.035,6.0359,6.0291,6.0293,6.0294,6.0354,0,5.9275,5.9409,5.9472,5.9578,5.9649,5.9703,5.9767,5.9842,5.9896,5.9964,6.0024,6.0101,6.0112,6.0146,6.0192,6.0256,6.0296,6.0253,6.035,6.0352,6.0324,6.037,6.0358,6.041,6.0363,6.0364,6.0365,0,5.9347,5.9427,5.954,5.9644,5.9676,5.9733,5.9824,5.9889,5.9975,6.0011,6.0075,6.0117,6.0197,6.0192,6.0303,6.0272,6.0316,6.0354,6.0357,6.0367,6.0359,6.038,6.0428,6.0436,6.0379,6.0378,6.0377,0,5.9336,5.9472,5.9558,5.9601,5.9724,5.9762,5.9815,5.9901,5.9953,6.0033,6.0068,6.0156,6.0203,6.027,6.0336,6.0326,6.0441,6.0441,6.0473,6.0471,6.0493,6.049,6.0547,6.0523,6.0523,6.0523,6.0522,0,5.9381,5.9448,5.9555,5.9607,5.9685,5.9757,5.9832,5.9889,5.9965,6.003,6.0082,6.0142,6.0225,6.0296,6.0348,6.0432,6.0453,6.0485,6.0497,6.048,6.0475,6.0508,6.0506,6.0525,6.0524,6.0524,6.0523,0,5.9381,5.9455,5.9553,5.9663,5.9692,5.9744,5.9839,5.9892,5.995,6.0032,6.0055,6.0145,6.0232,6.0304,6.0417,6.0452,6.0539,6.0555,6.051,6.0517,6.0544,6.054,6.0623,6.0638,6.0604,6.0604,6.0604,0,5.9404,5.9458,5.9575,5.9623,5.9675,5.9752,5.9806,5.9881,5.9935,6.0039,6.008,6.0171,6.0246,6.0381,6.0457,6.0544,6.0562,6.0585,6.0575,6.0556,6.0562,6.0557,6.0563,6.0585,6.0585,6.0585,6.0585,0,5.9438,5.9473,5.955,5.9641,5.9705,5.978,5.9856,5.9892,5.998,6.0039,6.0129,6.0188,6.0304,6.0393,6.0489,6.0544,6.0579,6.0588,6.06,6.0581,6.0553,6.0568,6.0511,6.0585,6.0585,6.0585,6.0585,6.0585,5.945,5.9501,5.9592,5.9676,5.9742,5.9813,5.9869,5.9935,6.0011,6.0113,6.0152,6.0244,6.0331,6.0464,6.0519,6.0592,6.0597,6.0614,6.0618,6.0621,6.0618,6.0543,6.061,6.061,6.061,6.061,6.061,0,5.9486,5.9548,5.9626,5.9732,5.9799,5.9828,5.9915,5.9969,6.0049,6.0128,6.0203,6.0306,6.0394,6.0478,6.0569,6.0612,6.063,6.0633,6.063,6.0642,6.0609,6.0589,6.0617,6.0617,6.0617,6.0617,6.0617,6.0617,5.9512,5.96,5.9646,5.9768,5.9829,5.992,5.9967,6.0033,6.0097,6.0211,6.0284,6.0339,6.0421,6.0519,6.0601,6.0624,6.0655,6.0653,6.068,6.0646,6.0645,6.0643,6.0625,6.0659,6.066,6.0707,6.0708,6.0708]},{"header":{"parameterUnit":"m.s-1","parameterCategory":1,"la1":30.2991,"la2":30.254,"lo1":-89.0895,"lo2":-89.0444,"dy":0.0017,"dx":0.0017,"nx":28,"ny":28,"refTime":"2024-08-08T09:00:00:Z","depth":0,"parameterNumber":3,"parameterNumberName":"V-component_of_WINDS"},"data":[0,0,0,0,0,0,0,0,0,0,0,0,0,0,0,0,0,0,0,0,0,0,0,0,0,0,0,0,0,0,0,0,0,0,0,0,0,0,0,0,0,0,0,0,0,0,0,0,0,0,0,0,0,0,0,0,0,0,-2.1529,-2.153,0,-2.1535,-2.1535,-2.1535,-2.1574,-2.1575,-2.1576,-2.1577,-2.1579,-2.1578,-2.1577,0,0,0,0,0,0,0,0,0,0,0,0,0,-2.1549,-2.1549,-2.1529,-2.153,-2.153,-2.1535,-2.1535,-2.1535,-2.1574,-2.1575,-2.1576,-2.1577,-2.1579,-2.1578,-2.1577,0,0,0,0,0,0,0,0,0,0,0,0,0,-2.1546,-2.1548,-2.1529,-2.155,-2.1552,-2.1535,-2.1535,-2.1535,-2.1574,-2.1575,-2.1577,-2.1578,-2.158,-2.1578,-2.1577,-2.1541,0,0,-2.1573,-2.1573,0,0,0,0,0,0,0,0,-2.1546,-2.1545,-2.1547,-2.1548,-2.155,-2.1556,-2.1543,-2.1537,-2.1573,-2.1565,-2.1577,-2.1579,-2.157,-2.1569,-2.1567,-2.1541,-2.1541,-2.1573,-2.1572,-2.1572,-2.1572,0,0,0,0,0,0,0,-2.1546,-2.1545,-2.1532,-2.1547,-2.1549,-2.1558,-2.1559,-2.1542,-2.1559,-2.1566,-2.1569,-2.1569,-2.1571,-2.1568,-2.1568,-2.1541,-2.1573,-2.1572,-2.1571,-2.1571,-2.1486,-2.1484,0,0,0,0,0,0,-2.1544,-2.1545,-2.1531,-2.1532,-2.1552,-2.1556,-2.1557,-2.1552,-2.156,-2.1562,-2.1568,-2.1571,-2.157,-2.1569,-2.1568,-2.1527,-2.1572,-2.1571,-2.157,-2.1487,-2.1485,-2.1484,0,0,0,0,0,0,-2.1545,-2.1543,-2.1531,-2.1539,-2.1539,-2.1554,-2.1548,-2.1552,-2.1549,-2.1561,-2.1564,-2.1562,-2.1571,-2.157,-2.1548,-2.1527,-2.157,-2.1569,-2.1489,-2.1487,-2.1485,-2.1443,0,0,0,0,0,0,-2.1545,-2.1543,-2.1529,-2.1539,-2.1538,-2.1512,-2.1547,-2.1551,-2.1547,-2.1551,-2.1557,-2.1559,-2.1572,-2.1549,-2.1546,-2.1526,-2.1568,-2.1491,-2.1488,-2.1485,-2.1446,-2.1439,-2.1434,0,0,0,0,0,-2.1545,-2.1516,-2.1529,-2.1527,-2.1522,-2.1511,-2.151,-2.1527,-2.1546,-2.1532,-2.154,-2.1559,-2.153,-2.1547,-2.1544,-2.1523,-2.1492,-2.1489,-2.1486,-2.1449,-2.1441,-2.1434,0,0,0,0,0,0,-2.1502,-2.1518,-2.1532,-2.1505,-2.1506,-2.1517,-2.1501,-2.1517,-2.1513,-2.1516,-2.1536,-2.1537,-2.1512,-2.1515,-2.1534,-2.1488,-2.1514,-2.151,-2.1487,-2.148,-2.1474,-2.1474,-2.1567,0,0,0,0,0,-2.149,-2.1481,-2.1494,-2.1469,-2.1469,-2.1485,-2.148,-2.1493,-2.1495,-2.1495,-2.1502,-2.1502,-2.1493,-2.1486,-2.1479,-2.1447,-2.1449,-2.1431,-2.1425,-2.1419,-2.1416,-2.14,-2.1392,-2.1473,-2.1473,-2.1473,0,0,-2.1464,-2.1471,-2.1464,-2.1461,-2.1463,-2.1452,-2.1485,-2.1471,-2.1463,-2.1493,-2.1474,-2.1478,-2.1479,-2.1452,-2.1441,-2.1454,-2.1394,-2.1415,-2.1411,-2.141,-2.1396,-2.1388,-2.1381,-2.147,-2.1471,-2.1471,0,0,-2.1411,-2.1416,-2.1396,-2.1398,-2.1403,-2.1413,-2.1408,-2.1417,-2.1422,-2.1403,-2.1425,-2.1415,-2.1399,-2.1399,-2.1397,-2.1346,-2.1363,-2.1343,-2.131,-2.1295,-2.1288,-2.1283,-2.1265,-2.1258,-2.1339,-2.1339,-2.1338,0,-2.1378,-2.1363,-2.1383,-2.1369,-2.1367,-2.1395,-2.1375,-2.1376,-2.1377,-2.1374,-2.1389,-2.1371,-2.1374,-2.1348,-2.1336,-2.1333,-2.1328,-2.1342,-2.1288,-2.1282,-2.1278,-2.1261,-2.1254,-2.1336,-2.1336,-2.1337,-2.1337,0,-2.1323,-2.1312,-2.1295,-2.1298,-2.1294,-2.1276,-2.1293,-2.1286,-2.13,-2.1309,-2.1289,-2.1294,-2.1288,-2.1283,-2.1295,-2.1259,-2.1267,-2.1284,-2.1311,-2.1267,-2.1252,-2.1246,-2.1333,-2.1334,-2.1334,-2.1335,0,0,-2.1243,-2.1257,-2.1251,-2.1252,-2.1259,-2.1251,-2.1235,-2.1231,-2.1225,-2.1225,-2.1212,-2.1198,-2.1215,-2.1213,-2.1225,-2.1212,-2.1172,-2.1231,-2.1231,-2.122,-2.1133,-2.112,-2.1112,-2.1183,-2.1182,-2.1181,-2.1133,0,-2.1193,-2.1168,-2.1185,-2.1157,-2.1148,-2.1174,-2.116,-2.1163,-2.1171,-2.1163,-2.1171,-2.1162,-2.1184,-2.1184,-2.1171,-2.1179,-2.1154,-2.1183,-2.1171,-2.117,-2.117,-2.1104,-2.1091,-2.1045,-2.1127,-2.1126,-2.1125,0,-2.1131,-2.113,-2.1101,-2.1111,-2.1108,-2.1095,-2.1093,-2.1086,-2.1089,-2.1096,-2.1094,-2.1111,-2.1095,-2.1121,-2.11,-2.1119,-2.1115,-2.1118,-2.1117,-2.1117,-2.1145,-2.1103,-2.1031,-2.1025,-2.1116,-2.1117,-2.1117,0,-2.1077,-2.1068,-2.105,-2.105,-2.1061,-2.1052,-2.1056,-2.106,-2.1057,-2.1055,-2.1053,-2.1049,-2.1046,-2.1042,-2.1057,-2.1074,-2.1034,-2.1061,-2.1039,-2.1039,-2.1029,-2.103,-2.0957,-2.1026,-2.1026,-2.1026,-2.1026,0,-2.102,-2.1001,-2.1026,-2.1015,-2.0994,-2.1015,-2.0994,-2.1001,-2.1005,-2.0995,-2.1017,-2.1007,-2.1027,-2.1019,-2.103,-2.1011,-2.1009,-2.1014,-2.1017,-2.1013,-2.1012,-2.1011,-2.1014,-2.1024,-2.1025,-2.1025,-2.1025,0,-2.0956,-2.0972,-2.0954,-2.0966,-2.0969,-2.0954,-2.0964,-2.0954,-2.0964,-2.0951,-2.0949,-2.0964,-2.0956,-2.097,-2.0962,-2.097,-2.0944,-2.0952,-2.0944,-2.0946,-2.0924,-2.0926,-2.0848,-2.0839,-2.0913,-2.0912,-2.0911,0,-2.0919,-2.0905,-2.0917,-2.0913,-2.0916,-2.0908,-2.0906,-2.0925,-2.0921,-2.0924,-2.0914,-2.0908,-2.0904,-2.0889,-2.0899,-2.0894,-2.0902,-2.0875,-2.0901,-2.0897,-2.0902,-2.0903,-2.0903,-2.0869,-2.0869,-2.0868,-2.0867,0,-2.0851,-2.086,-2.0856,-2.0855,-2.0852,-2.0851,-2.0852,-2.0847,-2.0867,-2.0862,-2.0855,-2.0852,-2.0846,-2.0839,-2.0837,-2.084,-2.0857,-2.0859,-2.0854,-2.0849,-2.0845,-2.0848,-2.093,-2.0861,-2.0861,-2.0862,-2.0862,-2.0862,-2.0801,-2.079,-2.0797,-2.0792,-2.0795,-2.0796,-2.0788,-2.0797,-2.0792,-2.0789,-2.08,-2.0791,-2.0795,-2.0793,-2.0795,-2.0787,-2.0799,-2.0791,-2.0789,-2.0787,-2.0784,-2.0846,-2.0786,-2.0786,-2.0787,-2.0787,-2.0787,0,-2.0735,-2.0741,-2.0736,-2.0738,-2.0734,-2.0752,-2.0754,-2.0749,-2.0741,-2.0744,-2.074,-2.0732,-2.0726,-2.0736,-2.0731,-2.0723,-2.0731,-2.0721,-2.0723,-2.0723,-2.0773,-2.0779,-2.0715,-2.0715,-2.0715,-2.0715,-2.0715,-2.0716,-2.0701,-2.0685,-2.0695,-2.068,-2.0686,-2.0678,-2.0678,-2.0679,-2.0681,-2.0672,-2.0667,-2.0674,-2.068,-2.0676,-2.0672,-2.0675,-2.0672,-2.066,-2.0666,-2.0712,-2.0719,-2.0726,-2.0731,-2.0659,-2.0659,-2.0617,-2.0616,-2.0616]}]]